Kuiper-00111

operational
NORAD ID: 65149 Int'l Des: 2025-171 Owner: KUIP Country: US Constellation: kuiper
LEOCIRCULAR

About Kuiper-00111

Description loading...

Live Position

Loading 3D Globe...

Upcoming Passes

Altitude History

Altitude vs Time

uPlot chart will show altitude changes over time

Two-Line Element Set

1 65149U 25171T 25304.25002315 .00013278 00000-0 17590-2 0 9998
2 65149 51.8986 25.4623 0009518 56.6149 174.8146 14.80107172 4972
Epoch: Oct 31, 2025 • Age: 10 hours

Current Status

Altitude 652.7 km
Velocity 7.53 km/s
Sub-Earth Point -50.99°S, 0.07°W
Launch Date Aug 11, 2025
Age 0.2 years
Type internet

Technical Details

Classification Payload
Mass 490.00 kg
Dry Mass 490.00 kg
Total Mass 490.00 kg
Length 1.80 m
Diameter 0.70 m
Span 5.00 m
Shape Box + 2 pan
Manufacturer KUIP
Bus Type Kuiper
Phase Status In Orbit
Owner/State KUIP/US

Large Constellations

Loading constellations...